Terug naar catalogus

KUIPER-00172

ActiefCommunicatieLEO
NORAD 65785·PAYLOAD·🇺🇸 United States

Gelanceerd Sep 25, 2025 vanaf Cape Canaveral Space Force Station

Loading…

Volgende Passages (komende 24 uur)

TLE

VersSource: CelesTrak SupGP

Epoch: Sep 15, 2026, 02:25 UTC

1 65785C 25217Z   26258.10081019 -.00002438  00000+0 -31917-3 0  2581
2 65785  51.8978 263.0245 0000760  41.1587 170.1191 14.79924911    10

Volg KUIPER-00172 in realtime met AllMySat

Download on the App Store